Tracking 19832 objects as of 24-Aug-2019
HD Live streaming from Space Station
objects crossing your sky now

SAKURA 2A (CS-2A)

Track SAKURA 2A (CS-2A) now!
SAKURA 2A (CS-2A) is classified as:


NORAD ID: 13782
Int'l Code: 1983-006A
Perigee: 35,996.5 km
Apogee: 36,077.6 km
Inclination: 14.1 °
Period: 1,448.5 minutes
Semi major axis: 42408 km
RCS: 5.8102 m2 (large)
Launch date: February 4, 1983
Source: Japan (JPN)
Launch site: TANEGASHIMA SPACE CENTER (TNSTA)
aabbcc
Your satellite tracking list
Your tracking list is empty




NASA's NSSDC Master Catalog

Two Line Element Set (TLE):
1 13782U 83006A   19235.53496823 -.00000135 +00000-0 +00000-0 0  9998
2 13782 014.1005 340.7526 0009566 276.6826 085.4449 00.99410211103100
Source of the keplerian elements: AFSPC